Dewpoint
76 72 70 70 71 72 72 70 59 62 61 56 56 51 48 48 50 49 49 56 50 51 52 53 53 54 55 57 60 60 60 59 59 56 56 65 70 70 70 71 71 71 71 73 74 74 73 74 74 74 74 74 74 74 74 75 76 76 77 77 76 75 75 75 75 76 76 76 76 76 75 75 76 76 76 76 76 76 75 75 75 75 75 75 75 75 75 75 75 75 75 74 74 75 75 74 74
68 68 68 70 73 74 66 69 60 56 57 57 49 48 50 48 48 51 49 51 49 51 54 52 52 54 54 57 61 60 60 62 63 63 65 67 68 68 70 72 70 70 70 72 73 73 73 73 74 74 74 74 74 74 75 76 75 76 76 76 75 75 75 75 75 75 75 76 75 75 75 75 76 76 76 76 76 76 75 75 75 75 75 75 75 75 75 75 75 75 75 75 74 74 74 74 74
66 66 66 71 71 70 66 66 56 54 53 49 47 48 52 49 47 50 49 50 50 50 54 55 54 54 56 56 58 59 59 63 63 64 65 68 68 69 70 71 71 71 71 72 71 72 73 74 74 74 75 74 74 75 76 76 77 77 76 76 75 75 75 75 75 75 75 75 75 75 75 75 75 75 76 76 76 75 75 75 75 75 75 75 75 75 75 75 75 75 75 75 75 75 74 74 74
66 67 67 73 66 68 63 61 56 54 50 52 52 47 49 47 47 48 47 49 51 52 54 55 54 55 57 57 59 60 59 59 62 63 65 67 69 70 71 71 72 70 70 71 71 71 72 75 75 75 75 76 76 76 76 75 76 76 76 76 75 75 75 75 75 75 75 75 75 75 75 75 75 75 75 75 75 75 75 75 75 75 75 75 75 75 75 76 75 75 75 75 75 75 75 75 74
66 68 69 73 69 62 61 58 55 55 46 55 53 47 45 46 47 47 48 50 50 52 54 54 55 57 57 57 58 57 56 60 62 64 66 68 69 70 70 70 70 70 70 71 71 71 73 75 75 75 75 75 76 76 75 75 75 76 76 75 75 75 75 75 75 75 75 75 75 76 75 75 75 75 75 75 75 75 75 75 75 75 75 75 75 75 75 75 75 75 75 75 74 74 74 74 75
67 69 68 66 63 64 58 54 53 38 42 53 56 44 45 45 45 48 48 48 48 51 52 54 56 57 58 58 58 59 62 61 64 65 67 68 69 70 70 70 68 70 70 69 70 72 73 76 76 76 76 76 76 76 75 75 75 75 75 76 75 75 75 75 75 75 75 76 76 75 75 75 75 75 75 75 75 75 75 74 74 75 75 75 75 76 76 75 76 76 75 75 75 74 75 74 75
68 68 67 64 63 61 55 51 51 32 38 44 45 47 45 45 47 46 46 47 49 51 52 55 57 57 56 59 60 61 62 63 63 64 66 67 68 70 70 69 69 69 69 70 70 72 73 76 76 76 76 76 76 76 76 76 76 76 76 76 75 75 75 75 75 75 75 76 75 75 75 75 74 74 74 75 75 75 74 74 75 75 74 75 75 75 75 75 75 75 75 75 75 75 75 75 74
69 66 66 61 59 58 55 54 34 33 37 42 46 46 46 46 46 45 45 43 46 47 51 53 55 55 57 61 61 63 63 64 64 64 67 67 68 68 68 68 68 69 69 70 71 72 76 76 76 76 76 76 76 76 76 76 76 76 76 76 75 75 75 75 75 75 75 75 75 75 75 75 75 74 74 75 75 75 75 74 74 74 74 75 76 76 76 75 75 75 74 74 75 74 74 75 74
67 65 61 58 54 51 47 40 29 34 38 42 44 47 51 46 45 45 46 47 48 51 52 56 57 56 60 60 60 64 64 66 66 68 67 67 68 68 68 68 68 70 69 69 73 74 75 77 77 77 77 77 76 76 76 76 76 76 76 75 75 75 75 76 75 75 75 75 75 75 75 74 74 74 74 75 75 75 74 74 73 74 75 76 76 76 76 75 75 75 75 75 75 75 74 74 74
67 64 58 55 54 49 47 33 32 35 34 35 39 42 44 45 46 46 43 46 52 54 55 57 58 57 59 59 61 62 64 65 65 66 67 67 68 68 68 69 69 69 69 71 72 73 75 78 77 77 77 77 77 76 76 76 76 76 75 75 75 75 76 76 75 75 75 75 75 75 75 74 74 74 74 75 75 75 74 74 74 74 76 76 76 75 75 75 75 75 75 75 75 74 74 74 74
62 63 61 56 51 50 36 22 25 31 35 39 40 41 44 46 46 46 47 48 53 53 56 57 56 58 59 61 62 64 64 63 63 64 66 66 67 68 68 69 69 69 70 70 70 73 75 75 77 77 77 77 77 77 76 76 76 75 75 75 75 75 76 76 76 75 75 75 75 75 74 74 74 74 74 75 75 74 74 74 74 75 76 76 75 75 75 75 75 75 75 75 76 75 75 75 74
60 60 58 54 50 38 28 24 23 28 34 35 37 41 44 45 45 46 46 47 50 52 54 56 56 60 59 60 61 63 63 63 63 65 66 66 66 68 69 69 69 70 70 68 71 73 74 75 75 77 76 77 77 77 76 76 76 76 75 75 75 76 76 76 75 75 75 75 75 75 75 75 75 74 74 75 75 74 74 75 74 75 75 75 76 75 75 75 76 75 76 75 75 75 75 75 74
59 58 57 55 51 35 28 27 26 30 32 36 38 40 43 44 45 45 47 46 50 51 53 57 58 59 57 58 62 62 63 64 65 66 66 66 66 68 68 68 69 69 68 70 71 71 74 74 74 75 75 77 76 76 76 76 76 76 76 75 75 76 76 75 75 75 75 75 75 75 75 75 75 74 75 75 75 75 74 74 74 72 73 75 76 76 75 75 75 75 75 75 75 75 75 75 75
61 58 56 51 50 35 34 26 29 30 28 29 34 40 41 45 45 46 46 46 50 53 55 57 57 58 58 59 61 62 63 65 66 66 66 66 66 68 68 68 69 69 69 70 70 72 72 73 73 74 75 75 76 76 77 76 76 76 76 75 75 76 75 75 75 76 76 75 75 75 75 75 75 75 75 75 75 75 74 73 73 73 73 74 75 76 75 76 75 75 75 75 76 76 75 75 75
59 55 53 53 50 36 33 34 31 28 29 32 35 39 40 45 46 45 45 49 51 53 55 56 58 57 56 58 60 62 63 65 65 65 65 65 65 67 69 69 68 69 69 69 71 71 71 72 72 74 75 75 76 75 76 76 77 76 76 76 75 75 75 75 76 76 75 75 75 75 75 75 75 75 75 75 75 74 75 74 74 73 73 73 74 75 76 76 75 75 74 74 75 75 75 75 76
52 51 52 49 44 38 35 33 32 29 28 31 34 34 37 41 43 45 49 50 50 53 55 53 56 55 57 59 60 61 63 63 64 65 65 65 66 68 68 69 68 69 70 70 70 71 71 71 73 74 75 75 75 74 75 76 77 77 76 76 75 75 75 75 76 76 76 76 75 75 75 75 75 75 76 75 75 75 74 73 74 72 73 73 74 75 75 76 76 75 75 75 75 75 74 75 75
54 56 52 49 47 38 36 35 33 29 30 30 33 33 34 38 44 46 49 49 48 51 53 54 53 55 56 57 61 62 62 64 66 65 65 66 67 67 68 68 69 69 70 70 71 71 70 71 73 74 75 75 74 74 75 76 76 76 76 76 76 75 76 76 76 76 76 76 76 76 76 75 76 76 75 74 75 74 74 74 72 73 72 73 73 74 75 75 75 75 75 75 75 75 75 75 76
55 52 48 45 46 44 35 36 36 31 30 30 33 35 36 38 40 43 46 46 48 50 51 51 52 54 58 60 62 62 63 64 65 64 65 65 66 66 66 68 68 68 69 70 71 71 71 72 73 73 74 74 74 74 74 75 77 76 75 76 76 76 76 76 76 76 76 76 76 76 77 76 76 77 76 75 76 75 76 74 73 73 72 73 74 74 75 75 73 73 74 75 75 76 76 76 77
54 53 50 45 42 36 39 37 36 34 31 33 34 34 34 36 33 40 42 44 44 47 49 50 53 58 60 61 62 62 63 64 64 65 64 65 65 66 66 68 69 68 69 69 70 70 72 72 73 72 73 74 73 74 74 75 76 76 75 76 76 76 76 76 76 76 76 76 76 76 76 76 77 77 78 76 75 74 76 76 75 73 72 73 74 74 75 76 74 73 73 74 75 76 76 77 78
47 46 45 43 42 39 39 39 38 39 36 34 32 34 34 34 34 41 40 41 42 46 46 50 55 58 60 61 61 62 62 63 65 65 64 64 64 64 66 67 67 69 69 69 69 70 71 71 72 73 73 74 73 73 73 74 75 76 75 75 75 76 76 76 76 76 76 76 74 76 76 78 75 77 77 76 75 75 75 77 76 72 73 74 75 75 76 76 76 74 74 74 73 74 76 75 74
47 45 44 43 43 39 36 38 37 39 39 36 33 34 30 32 33 35 39 39 39 45 45 50 55 58 59 60 60 62 62 63 64 64 63 64 64 64 65 67 66 67 68 69 70 71 71 72 72 73 74 74 73 73 72 73 74 74 74 74 74 75 75 75 75 75 75 76 77 76 74 76 74 75 76 76 75 74 72 76 74 74 75 76 76 76 77 76 75 75 76 76 75 75 74 73 71
46 44 45 44 39 43 34 37 38 38 39 38 34 32 29 35 30 35 36 39 35 44 45 50 55 57 58 60 61 62 62 63 62 62 62 63 63 65 65 66 67 67 68 68 70 70 70 71 72 73 72 73 74 72 72 73 74 73 73 73 73 74 74 74 74 74 73 76 76 74 75 75 74 75 75 75 75 77 75 74 74 76 76 75 77 76 75 76 76 75 74 74 75 74 73 74 72
40 42 44 44 42 41 37 37 36 35 37 38 34 36 29 33 32 37 37 36 36 43 45 50 55 58 57 60 61 61 61 62 61 61 62 62 63 63 64 65 65 66 67 68 69 70 70 70 71 72 72 74 74 73 74 73 72 74 75 73 73 73 73 74 73 73 74 76 76 76 73 72 73 72 74 76 76 75 75 75 76 76 76 76 76 75 75 75 74 75 77 75 75 71 70 73 74
38 39 41 41 42 42 37 35 35 30 38 38 39 39 32 32 30 37 37 37 35 41 45 51 54 58 57 59 60 60 60 60 61 61 62 61 62 62 63 65 65 66 67 67 68 68 69 68 71 71 73 73 73 73 74 74 73 73 73 75 74 74 74 73 73 72 75 75 76 75 75 75 74 77 76 76 76 76 79 75 76 75 74 75 77 75 73 74 76 77 76 75 74 74 69 71 69
34 30 43 42 44 41 39 35 36 35 36 38 38 34 34 32 33 35 35 36 36 41 46 50 54 56 58 58 59 60 60 59 59 60 61 62 62 63 63 65 66 66 65 67 68 67 68 69 70 71 72 74 72 71 72 73 73 73 72 72 73 74 73 72 72 74 74 75 75 75 75 73 73 73 74 74 78 78 76 75 75 77 76 75 75 74 75 76 77 75 76 76 76 75 73 72 70
30 30 32 34 37 38 38 36 35 36 37 37 37 34 34 29 33 29 35 32 39 41 47 50 53 55 55 56 57 60 60 58 59 59 61 62 61 62 62 64 65 66 66 67 67 68 68 69 69 70 71 73 72 70 72 73 73 73 73 73 72 74 72 73 75 72 73 74 75 75 75 75 73 74 75 75 76 76 74 75 77 74 74 76 73 75 77 77 75 76 75 74 73 73 72 72 73
24 22 26 31 34 36 37 36 35 35 37 38 36 37 32 33 32 28 35 33 39 40 46 49 52 53 54 55 55 59 58 58 58 59 59 60 61 62 62 63 64 65 67 67 66 67 68 68 69 70 71 74 72 70 72 73 74 72 73 73 73 73 72 74 73 73 73 72 75 78 78 77 76 73 75 77 76 77 78 77 76 77 75 74 77 75 76 76 76 75 75 74 72 73 73 72 71
22 22 28 29 32 36 36 35 35 35 32 39 37 38 36 35 22 30 34 32 37 41 45 48 52 52 54 54 57 60 59 59 59 59 57 59 60 62 62 64 64 64 65 66 67 68 66 66 67 69 70 73 73 70 73 72 73 73 75 74 73 73 76 72 72 72 72 74 76 78 80 79 76 77 78 77 76 77 77 76 76 77 75 77 78 76 77 77 76 76 76 76 75 72 73 71 71
20 21 26 28 31 32 35 35 34 34 33 37 37 38 37 34 25 35 35 35 37 38 45 45 51 51 53 54 55 59 58 59 59 59 58 61 61 62 61 62 63 64 65 66 68 67 65 66 67 69 70 74 74 70 70 71 72 72 74 73 74 76 75 74 72 72 75 74 77 79 79 78 79 78 81 78 76 76 76 77 76 76 77 76 76 75 76 76 77 75 73 75 75 72 69 71 72
22 21 21 23 30 30 32 34 33 30 30 36 36 37 37 36 31 35 36 35 36 36 43 44 48 49 51 54 55 58 57 58 58 58 60 61 62 61 61 61 63 63 64 66 66 66 66 65 66 68 69 71 74 70 72 71 72 73 74 73 75 76 75 73 74 76 77 76 77 77 77 78 79 77 79 79 78 77 76 76 75 78 77 76 77 78 76 77 75 74 74 74 73 71 68 70 71
20 21 23 22 22 25 29 31 29 29 31 35 36 34 38 38 34 35 36 34 36 37 40 41 46 45 50 52 55 58 57 60 57 58 57 60 61 61 62 61 63 63 65 65 66 68 69 67 67 67 70 71 72 72 72 72 73 71 72 73 73 76 75 74 71 73 76 77 76 78 78 79 79 78 78 79 79 77 75 75 76 75 77 76 76 77 76 76 75 74 73 72 73 71 70 70 68
21 20 21 22 22 23 25 27 27 25 32 34 34 34 49 39 36 37 37 34 34 38 39 40 43 44 46 51 53 55 57 58 58 57 57 59 60 61 62 62 63 63 66 68 68 68 68 67 70 66 68 71 72 73 73 73 73 75 74 74 74 76 75 74 74 72 73 75 74 77 78 78 78 79 78 78 78 77 75 75 77 75 76 77 76 76 76 75 75 74 73 72 72 69 71 69 68
19 21 18 17 21 22 24 26 25 25 32 32 34 33 37 36 39 38 37 35 33 38 40 40 42 43 45 49 52 54 56 57 58 58 59 60 61 62 62 63 64 65 66 69 68 70 70 68 70 66 66 70 72 72 74 75 76 75 75 73 71 76 73 72 75 73 73 73 74 74 77 78 78 78 78 78 78 76 76 76 75 74 75 76 77 75 75 74 73 70 74 73 72 72 70 66 67
17 19 21 21 18 21 23 25 24 24 32 32 33 34 37 37 39 38 38 36 34 36 39 40 42 43 47 48 48 52 56 57 58 59 58 59 62 62 61 66 64 65 66 67 69 70 69 69 69 68 69 67 73 73 74 74 74 76 73 73 75 72 71 70 71 72 74 72 74 75 78 78 78 78 78 79 79 77 76 76 75 75 76 76 76 75 73 74 74 73 72 73 71 73 70 68 68
18 21 21 20 21 21 22 23 25 25 29 32 34 34 37 38 36 38 38 36 34 37 38 39 40 42 46 45 48 51 54 56 58 60 59 62 61 62 62 64 63 65 65 67 69 71 71 71 70 72 72 70 71 74 76 75 75 76 73 74 73 74 75 74 72 73 73 74 72 76 78 78 78 77 77 78 79 77 77 77 77 76 75 76 75 74 73 73 73 73 72 72 75 71 70 71 69
18 20 19 20 20 19 19 24 27 27 30 32 34 34 37 38 37 37 37 36 35 37 39 40 40 41 45 46 46 48 53 54 59 60 59 60 61 62 62 64 64 65 67 68 71 71 72 72 72 72 74 71 73 75 75 73 73 72 71 72 72 73 73 74 74 73 72 74 74 77 77 78 78 78 78 77 78 78 76 76 76 76 76 75 74 73 73 72 72 72 71 70 72 72 72 72 67
19 19 22 20 19 19 23 25 28 28 29 32 34 35 37 38 38 38 38 38 37 35 37 41 42 42 43 45 46 47 52 53 58 59 59 60 60 64 64 66 66 66 68 69 71 71 72 71 71 72 73 74 73 73 73 72 72 72 72 70 70 71 73 74 73 73 72 72 76 78 78 79 78 78 78 78 77 78 77 78 77 75 76 75 74 73 73 72 73 73 75 74 69 71 70 70 68
18 19 21 21 20 19 23 24 27 29 28 33 35 36 38 40 40 38 39 39 37 35 37 41 41 42 43 46 47 48 49 52 56 58 59 59 60 61 63 66 67 66 68 69 69 70 72 71 71 73 72 73 73 72 73 73 74 72 72 70 69 69 72 73 73 74 72 72 77 77 78 77 77 77 78 78 78 77 77 76 75 76 75 75 74 74 73 72 71 70 73 75 71 69 71 64 67
17 19 20 19 21 21 22 24 26 29 29 30 34 35 37 43 42 41 40 40 42 41 39 39 43 44 46 45 48 49 48 52 53 56 57 58 59 60 64 66 65 65 66 66 69 71 73 73 73 74 73 73 73 73 74 74 74 73 72 71 70 69 71 72 72 73 75 71 73 76 78 78 77 77 76 79 77 77 76 75 75 76 75 75 74 74 72 71 72 71 71 72 72 70 69 70 73
18 19 20 19 21 21 21 22 25 29 29 28 34 33 37 38 41 42 44 42 43 43 42 42 41 45 45 44 48 49 49 54 52 54 56 57 59 61 64 66 66 65 67 67 68 70 72 74 74 74 75 74 73 74 75 75 74 75 75 74 73 72 72 72 74 75 75 74 72 76 78 79 78 77 77 75 77 77 76 75 74 74 75 74 74 72 72 71 73 72 69 69 71 65 63 67 68
19 18 17 19 19 21 21 22 23 28 30 30 31 36 37 38 37 40 44 42 41 43 43 44 45 44 44 45 47 50 49 53 53 52 56 58 59 60 65 67 65 65 66 66 67 69 70 73 74 74 75 75 74 74 75 76 76 76 76 76 75 75 75 75 73 74 75 75 73 75 76 78 77 77 76 75 75 75 76 75 74 74 74 74 73 73 74 70 69 69 71 70 69 69 64 65 67
17 18 18 18 19 22 23 22 24 28 30 30 30 35 37 39 38 37 40 42 42 44 46 46 50 48 49 47 48 49 49 52 56 55 55 57 58 61 65 67 66 65 66 67 67 69 71 73 74 75 75 75 75 75 75 76 76 76 76 75 74 74 74 73 72 73 74 75 73 73 77 75 76 76 76 75 74 74 74 75 75 73 73 73 73 73 73 74 70 71 69 69 69 70 69 67 68
17 19 19 19 19 21 21 22 22 25 30 32 32 32 35 38 38 39 40 40 43 47 47 45 50 53 48 49 49 47 48 49 52 53 54 55 59 60 64 67 66 65 65 67 68 70 72 74 75 75 75 75 75 75 75 76 76 76 75 74 74 74 74 74 76 74 74 74 74 74 74 75 76 74 72 74 74 74 75 75 75 73 72 73 73 73 74 67 65 68 70 72 72 71 71 69 67
16 19 20 19 18 18 19 23 22 25 29 29 31 32 34 36 37 41 41 41 43 49 47 48 46 50 46 47 46 51 49 50 51 55 55 56 60 60 62 66 67 65 65 66 67 70 73 74 75 75 75 75 75 76 76 76 75 76 76 75 75 75 73 74 75 76 75 75 75 72 72 73 74 75 73 74 74 74 74 74 74 73 73 70 72 72 72 71 72 70 71 71 72 73 73 70 68
13 16 18 17 17 19 20 21 22 26 28 31 31 33 35 35 39 41 41 41 46 48 47 47 49 49 49 49 47 49 49 52 51 52 54 55 59 60 61 64 65 65 65 66 68 70 72 73 75 75 75 75 75 76 76 76 76 76 76 75 76 75 74 74 74 74 75 74 74 74 75 74 75 75 76 73 74 73 74 74 74 74 73 75 72 70 67 67 69 70 71 73 72 71 71 71 72
12 14 17 17 17 19 20 19 22 25 27 28 32 31 34 35 38 37 40 40 42 44 44 44 48 50 51 49 49 49 51 56 52 51 55 56 58 60 60 62 65 65 66 68 68 69 71 73 74 75 75 75 75 76 76 76 76 76 76 76 75 75 75 74 73 74 75 75 75 75 75 75 74 74 75 74 75 74 73 74 73 72 71 67 68 68 68 68 69 70 70 69 70 70 71 73 69
10 14 15 15 16 18 21 21 26 29 27 30 26 29 31 32 37 38 38 39 40 39 43 44 47 48 49 51 48 47 50 52 52 53 55 58 57 60 61 61 65 66 66 67 67 68 70 72 74 75 75 75 76 76 76 76 76 76 76 76 75 75 75 75 74 74 74 75 74 74 75 75 75 74 72 74 74 73 73 73 70 71 71 72 71 72 74 67 66 69 67 69 69 70 70 70 69
8 12 13 16 21 20 27 26 29 25 23 28 24 26 29 31 35 36 40 40 39 38 39 42 43 46 49 51 45 45 48 52 52 54 55 58 61 61 62 63 64 67 67 67 66 69 70 71 73 74 75 76 76 76 76 75 75 76 76 76 76 76 75 74 74 73 74 74 73 74 75 76 75 74 75 72 71 68 73 73 72 71 72 72 71 74 71 67 68 66 70 70 70 69 70 70 68
6 10 17 16 18 24 20 25 22 21 21 23 20 25 27 30 35 36 36 37 38 39 37 38 40 43 49 47 47 50 50 48 52 57 59 58 60 61 61 65 66 68 68 68 66 66 70 72 73 74 75 76 76 75 75 76 76 76 76 76 76 76 76 75 75 74 75 74 74 75 75 75 75 74 74 73 70 70 73 74 73 74 73 72 72 71 68 73 73 70 68 68 68 69 70 69 71
0 7 15 17 16 17 19 19 23 24 22 22 23 25 25 30 32 35 34 36 37 37 39 38 41 44 48 47 51 49 52 54 54 54 56 59 62 62 63 64 66 67 67 68 68 68 70 71 73 73 75 76 76 75 76 76 76 76 77 76 76 76 76 76 75 74 74 75 75 75 73 73 74 73 71 73 71 70 72 73 73 73 73 72 72 71 70 70 71 71 71 68 66 69 68 68 69
3 8 11 17 21 16 20 19 19 20 22 21 21 22 29 27 32 33 34 36 37 36 36 41 43 43 49 49 53 52 54 55 56 58 57 58 61 63 63 65 66 66 66 65 67 69 71 71 73 74 75 75 76 76 76 76 76 76 77 76 76 76 76 76 76 75 75 75 74 74 75 74 73 73 73 73 74 73 72 72 72 72 72 72 71 70 69 70 71 71 71 69 68 69 67 68 67
8 9 10 14 18 21 17 21 20 19 20 21 25 25 27 26 35 34 35 33 35 35 37 38 43 42 43 43 45 49 50 49 50 53 57 59 61 63 63 64 66 66 67 66 67 69 71 71 73 74 75 75 76 76 76 76 76 76 77 76 76 76 76 76 76 76 76 75 75 75 75 75 74 74 74 73 72 73 72 71 71 70 71 70 70 70 69 69 71 70 70 71 68 67 67 67 69
4 3 6 9 14 14 21 24 18 20 22 23 29 26 28 28 29 30 33 33 34 35 34 33 37 39 45 43 49 50 49 50 51 52 55 60 60 62 63 64 63 65 65 66 68 69 71 72 73 74 75 75 76 76 76 76 76 76 76 76 76 76 76 75 75 75 73 75 76 75 74 74 74 75 74 73 72 73 72 71 70 69 70 69 69 70 69 70 70 69 68 69 68 65 68 67 68
0 0 2 6 9 11 22 16 23 19 18 23 20 19 23 25 27 32 31 33 33 35 35 32 38 41 40 43 51 51 48 50 52 56 61 61 60 62 62 61 61 63 64 67 69 70 71 71 72 73 74 75 75 76 75 75 76 76 76 76 76 76 75 74 74 75 75 75 75 75 74 74 74 73 73 71 72 71 72 72 70 69 69 68 68 68 69 69 70 69 68 69 67 68 69 69 68
2 -2 0 2 9 13 22 24 18 16 16 21 24 22 24 26 30 29 32 32 33 36 38 34 35 37 38 46 47 50 50 49 53 53 60 61 60 61 63 61 61 63 67 68 69 68 69 71 71 71 73 74 74 73 74 75 76 75 76 76 76 76 76 75 74 75 75 74 72 74 73 73 73 73 73 73 72 71 71 70 70 69 69 68 69 68 69 69 69 68 68 67 67 68 68 69 69
4 1 -3 7 10 14 16 20 22 19 18 23 21 18 22 28 25 26 28 34 36 34 36 34 33 34 35 37 52 52 52 52 50 50 55 59 59 58 58 61 62 63 66 66 66 65 64 67 70 70 71 74 75 75 75 75 75 75 75 76 76 76 76 76 75 75 75 74 73 73 72 72 73 72 72 73 72 70 70 69 68 68 68 68 68 67 68 69 69 68 67 65 66 67 67 67 67
4 1 0 0 2 5 10 13 16 17 22 23 21 18 23 27 26 25 33 37 37 35 37 42 37 34 31 35 40 51 53 54 53 53 52 55 56 53 56 61 62 63 65 64 64 64 63 64 67 68 71 71 73 74 74 75 75 75 76 76 76 76 76 75 75 75 74 74 74 72 72 72 73 71 71 72 72 71 71 70 68 68 68 68 68 68 68 68 68 68 68 67 67 66 67 67 67
4 0 -1 -2 -1 13 14 16 12 15 18 23 19 20 29 25 20 34 35 38 30 32 38 38 36 33 39 38 40 53 52 56 55 52 50 51 56 57 59 62 64 63 63 63 64 64 63 64 65 67 69 71 71 73 74 75 75 75 75 75 75 75 75 75 74 74 74 74 74 74 73 72 72 71 71 71 72 71 71 70 69 69 70 69 69 69 67 68 67 67 67 66 67 67 66 66 66